Back to catalog

EKRAN 11

AliveCommunicationsGEO
NORAD 14377·PAYLOAD·🇷🇺 Russia

Launched Sep 29, 1983 from Baikonur Cosmodrome

Loading…

TLE

FreshSource: Space-Track

Epoch: Sep 13, 2026, 14:26 UTC

1 14377U 83100A   26256.60192081 -.00000278  00000-0  00000-0 0  9990
2 14377   7.5876 303.9729 0003491 317.2747  42.6178  1.00231721 48263

Track EKRAN 11 in real time with AllMySat

Download on the App Store